[[{"header":{"parameterUnit":"m.s-1","parameterCategory":1,"la1":30.2991,"la2":30.254,"lo1":-89.0895,"lo2":-89.0444,"dy":0.0017,"dx":0.0017,"nx":28,"ny":28,"refTime":"2023-11-09T09:00:00:Z","depth":0,"parameterNumber":2,"parameterNumberName":"U-component_of_WINDS"},"data":[0,0,0,0,0,0,0,0,0,0,0,0,0,0,0,0,0,0,0,0,0,0,0,0,0,0,0,0,0,0,0,0,0,0,0,0,0,0,0,0,0,0,0,0,0,0,0,0,0,0,0,0,0,0,0,0,0,0,-2.5105,-2.5104,0,-2.5071,-2.5071,-2.507,-2.502,-2.5019,-2.5018,-2.5017,-2.4985,-2.4985,-2.4985,0,0,0,0,0,0,0,0,0,0,0,0,0,-2.5129,-2.5129,-2.5105,-2.5104,-2.5104,-2.5071,-2.5071,-2.507,-2.502,-2.5019,-2.5018,-2.5017,-2.4985,-2.4985,-2.4985,0,0,0,0,0,0,0,0,0,0,0,0,0,-2.511,-2.5129,-2.5105,-2.5075,-2.5072,-2.5071,-2.5071,-2.507,-2.502,-2.5019,-2.5018,-2.5017,-2.4985,-2.4985,-2.4985,-2.5011,0,0,-2.4984,-2.4984,0,0,0,0,0,0,0,0,-2.5111,-2.5109,-2.508,-2.5077,-2.5074,-2.5048,-2.5067,-2.505,-2.5021,-2.504,-2.5017,-2.5016,-2.5007,-2.5005,-2.5002,-2.501,-2.5008,-2.4984,-2.4984,-2.4984,-2.4984,0,0,0,0,0,0,0,-2.5112,-2.511,-2.5091,-2.5079,-2.5076,-2.5064,-2.506,-2.5064,-2.5032,-2.5038,-2.5035,-2.5031,-2.5005,-2.5002,-2.5001,-2.5008,-2.4984,-2.4984,-2.4984,-2.4984,-2.5038,-2.504,0,0,0,0,0,0,-2.5118,-2.5111,-2.5093,-2.509,-2.5089,-2.5065,-2.506,-2.5058,-2.5031,-2.5026,-2.5032,-2.5029,-2.5003,-2.5001,-2.4999,-2.503,-2.4984,-2.4984,-2.4984,-2.5037,-2.5039,-2.504,0,0,0,0,0,0,-2.5118,-2.5116,-2.5094,-2.51,-2.5096,-2.5066,-2.5064,-2.5058,-2.5054,-2.5027,-2.5021,-2.5035,-2.5002,-2.4999,-2.5009,-2.5028,-2.4984,-2.4984,-2.5035,-2.5037,-2.504,-2.509,0,0,0,0,0,0,-2.5119,-2.5117,-2.5125,-2.51,-2.5096,-2.5103,-2.5065,-2.5058,-2.5054,-2.505,-2.5028,-2.5023,-2.5,-2.5009,-2.5009,-2.5027,-2.4984,-2.5033,-2.5036,-2.5039,-2.5086,-2.5094,-2.51,0,0,0,0,0,-2.512,-2.5141,-2.5126,-2.5124,-2.5106,-2.5104,-2.5102,-2.5075,-2.5056,-2.5065,-2.5048,-2.5023,-2.5026,-2.5011,-2.501,-2.5028,-2.5032,-2.5035,-2.5039,-2.5083,-2.5092,-2.5099,0,0,0,0,0,0,-2.5168,-2.5137,-2.512,-2.5133,-2.5122,-2.5096,-2.5106,-2.5085,-2.5079,-2.5075,-2.5043,-2.5039,-2.5053,-2.5041,-2.5025,-2.5054,-2.5026,-2.5029,-2.506,-2.5068,-2.5075,-2.5076,-2.4984,0,0,0,0,0,-2.518,-2.5181,-2.5153,-2.5168,-2.5163,-2.5136,-2.5134,-2.5115,-2.5102,-2.5097,-2.508,-2.5069,-2.5068,-2.5068,-2.5065,-2.5085,-2.5081,-2.5098,-2.5105,-2.511,-2.5113,-2.5125,-2.5133,-2.5051,-2.5051,-2.5051,0,0,-2.5205,-2.5188,-2.519,-2.5177,-2.5166,-2.5168,-2.5132,-2.5135,-2.5137,-2.5097,-2.5105,-2.5094,-2.508,-2.5095,-2.5102,-2.5087,-2.5135,-2.5114,-2.5119,-2.5119,-2.5129,-2.5137,-2.5144,-2.5053,-2.5053,-2.5053,0,0,-2.5251,-2.5238,-2.5249,-2.5239,-2.5223,-2.5206,-2.5209,-2.5187,-2.5177,-2.5185,-2.5156,-2.5159,-2.5157,-2.5149,-2.5144,-2.5192,-2.517,-2.5192,-2.5226,-2.5239,-2.5245,-2.5251,-2.5268,-2.5275,-2.5195,-2.5196,-2.5196,0,-2.5284,-2.5285,-2.5257,-2.5263,-2.5259,-2.5225,-2.5237,-2.5229,-2.5213,-2.5212,-2.5196,-2.5194,-2.5182,-2.5196,-2.5209,-2.5206,-2.521,-2.5193,-2.5246,-2.5252,-2.5256,-2.5273,-2.528,-2.5198,-2.5198,-2.5198,-2.5198,0,-2.5327,-2.5328,-2.534,-2.5325,-2.5323,-2.5332,-2.5307,-2.5308,-2.5291,-2.5276,-2.5286,-2.5271,-2.5265,-2.5268,-2.525,-2.5281,-2.5272,-2.5252,-2.5222,-2.5267,-2.5283,-2.5289,-2.5202,-2.5201,-2.5201,-2.52,0,0,-2.5398,-2.5372,-2.5376,-2.5371,-2.5352,-2.5354,-2.5363,-2.5357,-2.536,-2.5351,-2.5359,-2.536,-2.5341,-2.5337,-2.5319,-2.533,-2.537,-2.5308,-2.5307,-2.532,-2.5404,-2.5419,-2.5427,-2.5356,-2.5357,-2.5358,-2.5406,0,-2.5441,-2.5453,-2.543,-2.5448,-2.545,-2.542,-2.5428,-2.5419,-2.5406,-2.5407,-2.5394,-2.5395,-2.537,-2.5368,-2.5377,-2.5363,-2.5386,-2.5359,-2.5363,-2.5364,-2.5367,-2.5435,-2.545,-2.5495,-2.5411,-2.5412,-2.5413,0,-2.549,-2.5485,-2.5504,-2.5487,-2.5487,-2.5494,-2.5489,-2.5491,-2.5481,-2.5471,-2.5468,-2.5447,-2.5457,-2.543,-2.5444,-2.5426,-2.5427,-2.5421,-2.5422,-2.542,-2.539,-2.5435,-2.5509,-2.5516,-2.5422,-2.5421,-2.5421,0,-2.5542,-2.5539,-2.555,-2.5547,-2.5527,-2.5534,-2.5526,-2.5515,-2.5514,-2.5511,-2.551,-2.5508,-2.5507,-2.5506,-2.5487,-2.5469,-2.5503,-2.5475,-2.5496,-2.5497,-2.5503,-2.5503,-2.5578,-2.5506,-2.5505,-2.5505,-2.5505,0,-2.559,-2.5603,-2.5573,-2.558,-2.5594,-2.557,-2.5585,-2.5575,-2.5566,-2.5571,-2.5546,-2.5552,-2.5526,-2.553,-2.5515,-2.5529,-2.5529,-2.5522,-2.5518,-2.5524,-2.5525,-2.5523,-2.5519,-2.5507,-2.5507,-2.5506,-2.5506,0,-2.5648,-2.5629,-2.564,-2.5622,-2.5618,-2.5629,-2.5614,-2.5621,-2.5608,-2.5615,-2.5616,-2.5596,-2.5599,-2.558,-2.558,-2.5571,-2.5593,-2.5583,-2.5596,-2.5593,-2.5616,-2.5614,-2.5692,-2.5701,-2.5623,-2.5624,-2.5624,0,-2.568,-2.5689,-2.5673,-2.5675,-2.5669,-2.5672,-2.5672,-2.5649,-2.565,-2.5642,-2.565,-2.5652,-2.5652,-2.566,-2.5646,-2.5647,-2.5637,-2.5664,-2.5637,-2.5643,-2.5638,-2.5637,-2.5639,-2.567,-2.5671,-2.5671,-2.5672,0,-2.5739,-2.573,-2.573,-2.5728,-2.5728,-2.5725,-2.5721,-2.5725,-2.5701,-2.5703,-2.5707,-2.5707,-2.5709,-2.5711,-2.571,-2.5704,-2.5685,-2.5681,-2.5687,-2.5692,-2.5699,-2.5696,-2.5611,-2.5679,-2.5678,-2.5678,-2.5677,-2.5677,-2.5785,-2.5792,-2.5783,-2.5785,-2.5779,-2.5777,-2.5783,-2.5771,-2.5774,-2.5772,-2.576,-2.5767,-2.576,-2.5756,-2.5753,-2.5759,-2.5746,-2.5753,-2.5755,-2.5757,-2.5761,-2.5699,-2.5758,-2.5758,-2.5758,-2.5758,-2.5758,0,-2.5842,-2.5835,-2.5837,-2.5833,-2.5835,-2.5818,-2.5813,-2.5816,-2.5822,-2.5817,-2.5819,-2.5824,-2.5828,-2.5816,-2.5818,-2.5825,-2.5817,-2.5827,-2.5825,-2.5825,-2.5772,-2.5767,-2.5834,-2.5834,-2.5834,-2.5834,-2.5834,-2.5834,-2.5872,-2.5885,-2.5875,-2.5886,-2.5879,-2.5885,-2.5884,-2.5883,-2.5879,-2.5886,-2.5889,-2.5881,-2.5874,-2.5876,-2.588,-2.5876,-2.5878,-2.5891,-2.5885,-2.5836,-2.5828,-2.5821,-2.5816,-2.5892,-2.5892,-2.5937,-2.5937,-2.5938]},{"header":{"parameterUnit":"m.s-1","parameterCategory":1,"la1":30.2991,"la2":30.254,"lo1":-89.0895,"lo2":-89.0444,"dy":0.0017,"dx":0.0017,"nx":28,"ny":28,"refTime":"2023-11-09T09:00:00:Z","depth":0,"parameterNumber":3,"parameterNumberName":"V-component_of_WINDS"},"data":[0,0,0,0,0,0,0,0,0,0,0,0,0,0,0,0,0,0,0,0,0,0,0,0,0,0,0,0,0,0,0,0,0,0,0,0,0,0,0,0,0,0,0,0,0,0,0,0,0,0,0,0,0,0,0,0,0,0,0.7778,0.7778,0,0.779,0.779,0.779,0.7877,0.7879,0.7882,0.7884,0.7893,0.7891,0.789,0,0,0,0,0,0,0,0,0,0,0,0,0,0.7829,0.7828,0.7778,0.7778,0.7778,0.779,0.779,0.779,0.7877,0.788,0.7882,0.7885,0.7894,0.7892,0.7889,0,0,0,0,0,0,0,0,0,0,0,0,0,0.7821,0.7828,0.7778,0.7823,0.7827,0.779,0.779,0.779,0.7876,0.788,0.7883,0.7886,0.7894,0.7892,0.7889,0.7808,0,0,0.7881,0.788,0,0,0,0,0,0,0,0,0.7821,0.7819,0.7816,0.782,0.7824,0.7835,0.7812,0.7796,0.7876,0.7857,0.7884,0.7887,0.7871,0.7871,0.7866,0.7809,0.7809,0.7881,0.7879,0.7878,0.7877,0,0,0,0,0,0,0,0.7821,0.7819,0.7782,0.7816,0.7821,0.7842,0.7845,0.7809,0.7846,0.7859,0.7866,0.7866,0.7874,0.7868,0.7866,0.7809,0.7881,0.7879,0.7877,0.7876,0.769,0.7687,0,0,0,0,0,0,0.7816,0.7818,0.7782,0.7783,0.7831,0.7839,0.7841,0.7828,0.7847,0.7853,0.7863,0.787,0.7871,0.7869,0.7867,0.7776,0.7878,0.7876,0.7874,0.7694,0.769,0.7686,0,0,0,0,0,0,0.7817,0.7812,0.7782,0.7802,0.78,0.7834,0.7819,0.7827,0.7821,0.785,0.7857,0.7851,0.7873,0.7871,0.7823,0.7778,0.7875,0.7872,0.7698,0.7693,0.7688,0.7592,0,0,0,0,0,0,0.7818,0.7812,0.7781,0.7801,0.7799,0.7737,0.7816,0.7825,0.7817,0.7826,0.7839,0.7845,0.7876,0.7827,0.7821,0.7776,0.787,0.7702,0.7695,0.7689,0.7599,0.7584,0.7571,0,0,0,0,0,0.7819,0.7752,0.7779,0.7774,0.7761,0.7734,0.7733,0.7771,0.7813,0.7783,0.7802,0.7844,0.7783,0.7821,0.7815,0.7768,0.7705,0.7697,0.769,0.7605,0.7587,0.7571,0,0,0,0,0,0,0.7724,0.7756,0.7786,0.7723,0.7726,0.7749,0.7712,0.7749,0.7739,0.7748,0.7794,0.7797,0.7743,0.7751,0.7792,0.7693,0.7752,0.7743,0.769,0.7672,0.7659,0.7658,0.7868,0,0,0,0,0,0.7696,0.7672,0.7701,0.7643,0.7643,0.7677,0.7666,0.7696,0.77,0.7701,0.7716,0.7718,0.77,0.7686,0.7671,0.7601,0.7606,0.7566,0.7552,0.754,0.7532,0.7498,0.7481,0.7661,0.7661,0.7662,0,0,0.7637,0.7652,0.7633,0.7624,0.7629,0.7604,0.7677,0.7646,0.7628,0.7696,0.7653,0.7664,0.7669,0.7611,0.7586,0.7616,0.7484,0.7531,0.7521,0.7519,0.7489,0.7472,0.7456,0.7656,0.7657,0.7658,0,0,0.7517,0.7525,0.7479,0.7484,0.7492,0.7516,0.7505,0.7523,0.7534,0.7492,0.7544,0.7522,0.7489,0.7492,0.7488,0.7373,0.7413,0.7366,0.7293,0.726,0.7245,0.7233,0.7194,0.7179,0.7358,0.7358,0.7358,0,0.7443,0.7407,0.745,0.7417,0.7412,0.7475,0.7429,0.7431,0.7433,0.7428,0.7462,0.7424,0.7432,0.7376,0.7349,0.7343,0.7333,0.7365,0.7244,0.7232,0.7221,0.7184,0.7169,0.7352,0.7353,0.7353,0.7354,0,0.7316,0.7291,0.7252,0.7255,0.7246,0.7206,0.7244,0.7229,0.726,0.728,0.7238,0.725,0.7239,0.7228,0.7256,0.7177,0.7196,0.7236,0.7296,0.7198,0.7164,0.715,0.7344,0.7346,0.7348,0.7349,0,0,0.7135,0.7165,0.715,0.7153,0.7168,0.7149,0.7113,0.7104,0.7092,0.7091,0.7063,0.7035,0.7074,0.707,0.71,0.707,0.6981,0.7115,0.7116,0.7091,0.6896,0.6866,0.6849,0.7007,0.7005,0.7003,0.6896,0,0.7021,0.6963,0.7002,0.6937,0.6915,0.6975,0.6944,0.695,0.6969,0.6953,0.6973,0.6953,0.7005,0.7004,0.6977,0.6997,0.6942,0.7005,0.6982,0.6981,0.698,0.6831,0.6799,0.6698,0.6883,0.6881,0.6879,0,0.688,0.6877,0.681,0.6832,0.6824,0.6796,0.6793,0.6776,0.6785,0.6801,0.6798,0.6836,0.6803,0.6863,0.6818,0.686,0.6853,0.6862,0.6859,0.6859,0.6924,0.6828,0.6666,0.6651,0.6858,0.686,0.6862,0,0.6757,0.6735,0.6693,0.6694,0.6718,0.6697,0.6706,0.6718,0.6711,0.6708,0.6705,0.6697,0.6693,0.6686,0.6722,0.6761,0.6673,0.6735,0.6686,0.6685,0.6665,0.6666,0.6501,0.6659,0.6659,0.6659,0.6659,0,0.6627,0.6584,0.6639,0.6613,0.6567,0.6613,0.6566,0.6582,0.6592,0.6571,0.6622,0.6601,0.6649,0.6632,0.666,0.662,0.6617,0.663,0.6638,0.6626,0.6624,0.6622,0.663,0.6655,0.6656,0.6657,0.6657,0,0.6481,0.6516,0.6475,0.6502,0.6508,0.6473,0.6497,0.6475,0.6498,0.647,0.6466,0.6502,0.6486,0.6521,0.6509,0.6528,0.6472,0.6491,0.647,0.6476,0.6425,0.643,0.6254,0.6234,0.6403,0.6401,0.64,0,0.6396,0.6365,0.639,0.638,0.6387,0.637,0.6364,0.6409,0.6401,0.641,0.6386,0.6375,0.6368,0.634,0.6365,0.6356,0.6376,0.6315,0.6375,0.6365,0.6377,0.6379,0.6377,0.6302,0.63,0.6299,0.6297,0,0.6241,0.6261,0.6251,0.6248,0.624,0.6239,0.6242,0.6231,0.6279,0.6267,0.6252,0.6247,0.6237,0.6225,0.6223,0.6233,0.6273,0.6278,0.6267,0.6254,0.6244,0.6251,0.6437,0.6282,0.6284,0.6285,0.6285,0.6286,0.6124,0.6101,0.6116,0.6104,0.6111,0.6114,0.6095,0.6117,0.6106,0.6102,0.6128,0.6108,0.612,0.6122,0.6128,0.6113,0.614,0.6123,0.6119,0.6114,0.6107,0.6246,0.6112,0.6113,0.6113,0.6114,0.6114,0,0.5974,0.5988,0.5977,0.598,0.5971,0.6012,0.6018,0.6007,0.5989,0.5997,0.5991,0.5975,0.5965,0.599,0.5983,0.5967,0.5985,0.5964,0.5966,0.5968,0.6082,0.6093,0.5949,0.5949,0.5949,0.5949,0.5949,0.5949,0.5895,0.5858,0.588,0.5847,0.5861,0.5843,0.5843,0.5846,0.5853,0.5834,0.5826,0.5843,0.5859,0.5855,0.5847,0.5855,0.5851,0.5823,0.5837,0.5943,0.5959,0.5975,0.5986,0.5822,0.5821,0.5725,0.5724,0.5723]}]]